Regional Weather Roundup
Issued by NWS

Home | Current Version | Previous Version | Graphics & Text | Print | Product List | Glossary On
Versions: 1 2 3 4 5 6 7 8 9 10 11 12 13 14 15 16 17 18 19 20 21 22 23 24 25 26 27 28 29 30 31 32 33 34 35 36 37 38 39 40 41 42 43 44 45 46 47 48 49 50
000
ASUS43 KOAX 270210
RWRNE

WEATHER ROUNDUP FOR NEBRASKA
NATIONAL WEATHER SERVICE OMAHA NE
900 PM CDT TUE AUG 26 2014

NOTES: SATELLITE DATA IS BEING USED TO AUGMENT CLOUD COVER ABOVE
       12000 FEET.
       "FAIR" INDICATES FEW OR NO CLOUDS BELOW 12,000 FEET WITH NO
       SIGNIFICANT WEATHER AND/OR OBSTRUCTIONS TO VISIBILITY.

  * THESE STATIONS DO NOT REPORT WEATHER SUCH AS RAIN...SNOW OR FOG.

NEZ001>004-019>022-054>056-270300-
NEBRASKA PANHANDLE

CITY           SKY/WX    TMP DP  RH WIND       PRES   REMARKS
SCOTTSBLUFF    CLOUDY    71  60  68 VRB3      30.10F
ALLIANCE       CLOUDY    71  61  70 SE10      30.13R
CHADRON        CLOUDY    70  61  73 S13       30.10R
KIMBALL        CLOUDY    70  61  73 S8        30.17R
SIDNEY         CLOUDY    70  61  73 SE9       30.16S
$$

NEZ057>060-069>072-079>082-270300-
SOUTHWEST NEBRASKA

CITY           SKY/WX    TMP DP  RH WIND       PRES   REMARKS
NORTH PLATTE   MOCLDY    70  65  84 E8        30.11R
IMPERIAL       MOCLDY    71  64  78 E6        30.12R
LEXINGTON      PTCLDY    73  68  86 E5        30.11R
MCCOOK         PTCLDY    74  66  76 NE7       30.09S
OGALLALA       CLOUDY    70  62  77 E3        30.12S
$$

NEZ005>010-023>029-035>040-094-270300-
NORTH CENTRAL NEBRASKA

CITY           SKY/WX    TMP DP  RH WIND       PRES   REMARKS
VALENTINE      MOCLDY    74  62  66 SE8       30.08S
AINSWORTH      PTCLDY    69  62  78 SE9       30.11S
BROKEN BOW     CLEAR     71  66  84 SE5       30.12R
O`NEILL        CLEAR     68  64  86 E6        30.13R
ORD            CLEAR     68  65  90 E3        30.11R
THEDFORD       MOCLDY    73  63  70 SE7       30.13R
$$

NEZ041-046>049-061>064-073>077-083>087-270300-
SOUTH CENTRAL NEBRASKA

CITY           SKY/WX    TMP DP  RH WIND       PRES   REMARKS
GRAND ISLAND   PTCLDY    73  68  84 E6        30.10R
AURORA         CLEAR     71  69  95 E8        30.10R
HASTINGS       CLEAR     72  66  81 E8        30.10R
HEBRON         PTCLDY    77  68  73 NE7       30.08R
HOLDREGE       PTCLDY    72  69  90 CALM      30.10R
KEARNEY *      CLEAR     72  68  88 NE8       30.11R
YORK           CLEAR     72 N/A N/A E8        30.11R
$$

NEZ011>018-030>034-042>045-270300-
NORTHEAST NEBRASKA

CITY           SKY/WX    TMP DP  RH WIND       PRES   REMARKS
NORFOLK        MOCLDY    68  63  84 E7        30.12R
ALBION         CLOUDY    70  65  83 E5        30.13R
BLAIR          PTCLDY    72  67  85 E6        30.12R
FREMONT        PTCLDY    73  65  75 E5        30.12R
TEKAMAH        PTCLDY    71  66  84 E5        30.12R
WAYNE          PTCLDY    64  62  94 E5        30.14R
$$

NEZ050>053-065>068-078-088>093-270300-
SOUTHEAST NEBRASKA

CITY           SKY/WX    TMP DP  RH WIND       PRES   REMARKS
LINCOLN        CLEAR     74  67  78 E8        30.11R
OMAHA EPPLEY   MOCLDY    73  66  78 E9        30.11R
BEATRICE       CLEAR     76  69  79 E7        30.09R
FALLS CITY     PTCLDY    75  71  87 NE5       30.09R
NEBRASKA CITY  CLEAR     72  69  90 E5        30.11R
PLATTSMOUTH    PTCLDY    71  67  87 NE3       30.11R
$$

NEZ044-045-051>053-067-270300-
OMAHA AREA

CITY           SKY/WX    TMP DP  RH WIND       PRES   REMARKS
OMAHA EPPLEY   MOCLDY    73  66  78 E9        30.11R
BLAIR          PTCLDY    72  67  85 E6        30.12R
FREMONT        PTCLDY    73  65  75 E5        30.12R
MILLARD        PTCLDY    75  66  73 CALM      30.11R
OFFUTT AFB     CLOUDY    72  71  99 NE6       30.10S
PLATTSMOUTH    PTCLDY    71  67  87 NE3       30.11R
WAHOO          MOCLDY    70  66  86 E3        30.11R
$$



USA.gov is the U.S. government's official web portal to all federal, state and local government web resources and services.